Location: B
(0.0000°N, 0.0000°E)
Time: 20:01:10
(UTC+02:00)

Cosmos 1025 Rocket - Visible Passes

Search period start: 24 August 2016 00:00
Search period end: 03 September 2016 00:00
Orbit: 595 x 618 km, 82.5° (Epoch: 23 August)

Date Brightness Start Highest point End Pass type
(mag) Time Alt. Az. Time Alt. Az. Time Alt. Az.
24 Aug 3.4 21:37:29 10° N 21:40:48 52° N 21:40:48 52° N visible
25 Aug 3.9 21:51:04 10° NNW 21:55:12 48° W 21:55:32 47° WSW visible
26 Aug 4.8 20:29:37 10° ENE 20:31:17 12° E 20:32:58 10° ESE visible
26 Aug 5.2 22:05:10 10° NW 22:08:36 23° W 22:10:34 17° SW visible
27 Aug 4.0 20:41:14 10° NNE 20:44:42 24° E 20:48:10 10° SE visible
27 Aug 6.1 22:20:31 10° WNW 22:22:01 12° W 22:23:32 10° WSW visible
28 Aug 3.1 20:53:58 10° N 20:58:07 49° E 21:02:15 10° SSE visible
29 Aug 3.1 21:07:14 10° N 21:11:32 77° W 21:15:48 10° S visible
30 Aug 4.6 21:21:00 10° NNW 21:24:55 36° W 21:28:52 10° SSW visible
31 Aug 5.8 21:35:25 10° NW 21:38:20 18° W 21:41:15 10° SW visible
02 Sep 2.9 20:23:36 10° N 20:27:50 67° E 20:32:05 10° S visible
